Probability
0 0 0 0 0 0 0 0 0 2 4 7 9 10 9 8 6 3 1 0 0 0 0 0 0 0 0 0 0 0 0 0 0 0 0 0 0 0 0 0 0 0 0
0 0 0 0 0 0 0 0 1 2 5 7 9 10 9 7 5 2 0 0 0 0 0 0 0 0 0 0 0 0 0 0 0 0 0 0 0 0 0 0 0 0 0
0 1 1 0 0 0 0 0 1 2 4 7 9 10 9 6 3 1 0 0 0 0 0 0 0 0 0 0 0 0 0 0 0 0 0 0 0 0 0 0 0 0 0
1 2 3 2 1 0 0 0 0 1 3 6 8 9 7 4 2 0 0 0 0 0 0 0 0 0 0 0 0 0 0 0 0 0 0 0 0 0 0 0 0 0 0
3 4 5 5 3 1 0 0 0 1 2 3 5 6 4 3 1 0 0 0 0 0 0 0 0 0 0 0 0 0 0 0 0 0 0 0 0 0 0 0 0 0 0
3 4 6 7 5 2 0 0 0 0 1 1 1 2 1 1 1 0 0 0 0 0 0 0 0 0 0 0 0 0 0 0 0 0 0 0 0 0 0 0 0 0 0
3 3 5 6 4 1 0 0 0 0 0 0 0 0 0 0 0 1 1 0 0 0 0 0 0 0 0 0 0 0 0 0 0 0 0 0 0 0 0 0 0 0 0
3 3 4 4 3 1 0 0 0 0 0 0 0 0 0 0 1 2 1 0 0 0 0 0 0 0 0 0 0 0 0 0 0 0 0 0 1 2 1 1 0 0 0
2 3 3 3 3 2 0 0 0 0 0 0 0 0 0 0 1 2 1 0 0 0 0 0 0 0 0 0 0 0 0 0 1 0 0 1 2 3 3 2 1 0 0
1 2 3 3 4 2 1 0 0 0 0 0 0 0 0 0 1 1 0 0 1 1 0 0 0 0 0 0 0 0 0 0 0 0 0 1 4 4 3 3 2 1 1
0 1 1 2 4 3 1 0 0 0 0 0 0 0 0 0 0 1 1 1 2 3 2 1 1 0 0 0 0 0 0 0 0 0 0 2 5 4 3 3 3 3 2
0 0 0 1 2 3 3 3 2 1 1 1 1 1 1 0 0 0 1 1 3 4 4 4 3 2 1 0 0 0 0 0 0 0 1 4 6 5 4 3 3 3 2
1 0 0 0 1 3 5 6 5 3 2 2 2 2 1 1 0 0 0 1 2 3 5 6 5 2 1 0 0 0 0 0 0 0 1 4 6 6 5 4 3 1 1
2 1 0 0 1 4 5 5 4 2 1 2 2 2 1 1 0 0 0 1 1 3 4 4 2 1 0 0 0 0 1 1 0 0 2 5 7 7 6 5 3 1 0
3 1 0 1 3 4 4 2 1 1 1 2 3 2 1 1 1 1 1 1 1 2 2 2 1 1 0 0 0 1 3 2 1 1 3 8 10 9 7 6 3 1 0
7 4 1 1 3 5 3 1 0 1 2 3 4 3 1 0 1 3 2 1 1 1 1 2 3 2 2 1 0 1 3 4 3 2 4 7 11 11 10 9 7 5 3
15 11 6 2 3 5 4 1 1 2 3 4 4 3 2 2 2 3 3 2 1 1 2 3 4 3 2 1 1 1 2 4 4 4 4 6 9 12 13 13 12 11 9
24 21 13 6 6 7 4 3 3 3 3 3 4 4 3 3 3 2 2 1 1 1 2 3 3 2 1 1 1 0 1 2 4 5 4 5 7 10 13 16 17 17 15
31 28 20 13 11 9 5 3 3 3 3 3 3 4 4 3 3 3 3 3 3 2 1 1 1 1 1 1 1 0 0 1 2 4 4 3 5 10 15 18 21 20 17
33 32 27 20 15 11 6 4 3 3 2 2 3 5 6 4 3 4 5 6 6 4 2 1 1 2 2 3 2 2 1 2 3 4 3 1 3 9 14 18 21 19 17
37 37 34 26 19 13 9 6 5 4 3 2 3 6 9 8 6 6 7 9 8 7 5 4 3 4 4 5 5 5 5 4 5 5 5 3 4 7 11 16 19 18 17
42 43 41 35 27 19 13 10 7 6 6 4 5 9 13 13 11 10 11 11 10 10 8 7 6 5 5 6 7 8 7 5 4 5 7 7 6 7 7 10 17 20 21
43 43 43 43 36 26 18 13 10 9 8 7 9 13 16 17 15 14 15 15 13 12 10 9 8 6 5 6 7 7 7 6 4 5 7 8 9 8 5 5 11 19 23
41 40 41 43 39 30 22 17 14 12 9 10 12 15 17 18 17 16 17 18 18 15 13 11 9 7 7 6 7 7 7 6 6 6 6 7 8 8 6 3 5 12 18
39 38 37 39 39 34 26 22 19 16 13 13 15 17 18 19 20 20 21 23 23 20 17 13 10 9 8 7 7 7 7 7 6 6 6 7 7 8 6 4 4 7 10
38 37 36 38 40 37 30 24 21 18 16 17 19 20 19 20 22 24 25 27 26 24 21 16 12 10 9 8 7 7 6 6 6 6 6 7 8 9 8 6 5 6 6
Wind_Speed
10 10 12 13 14 15 16 16 17 17 17 17 17 17 17 18 18 17 17 17 16 15 14 13 13 12 12 12 12 12 12 12 13 13 13 13 12 11 11 11 12 11 14
13 11 13 14 15 15 16 16 16 17 17 17 17 16 16 16 16 16 16 15 15 14 13 12 12 11 11 11 11 10 10 10 11 11 12 12 11 10 9 9 11 10 13
14 13 13 15 15 15 15 15 15 16 16 16 16 16 15 15 15 15 15 14 14 13 13 12 11 10 10 10 9 9 8 8 9 10 10 8 9 11 12 13 14 13 13
15 13 13 16 16 16 15 15 15 15 15 15 15 15 15 14 14 14 14 13 13 12 12 11 10 10 9 9 8 7 6 6 6 7 5 6 7 11 11 12 12 12 12
15 14 15 17 16 16 15 15 14 14 14 14 14 14 13 13 13 13 13 12 12 11 11 10 9 9 8 7 6 5 4 4 4 4 3 7 7 10 11 11 11 11 10
16 15 15 17 16 16 15 15 14 14 14 13 13 13 12 12 11 12 11 11 10 10 9 9 8 8 7 6 5 4 2 2 3 3 5 8 8 9 10 10 10 10 9
16 14 15 17 16 15 15 15 14 13 13 13 12 12 11 11 10 10 10 9 9 8 8 7 7 7 6 5 3 2 2 4 5 2 6 8 8 10 10 9 9 9 8
16 15 14 16 16 15 14 14 14 13 12 12 11 11 10 10 9 9 9 8 8 7 6 6 6 5 5 3 2 2 3 6 4 3 7 8 10 10 10 9 8 8 8
15 14 13 13 13 14 14 13 13 12 12 11 10 10 9 9 9 8 7 7 7 7 6 6 5 4 4 3 2 3 4 6 5 1 8 7 10 10 9 8 8 8 8
13 13 12 11 11 10 10 12 12 12 11 10 9 9 9 9 8 8 8 7 7 6 6 5 4 4 3 3 4 5 6 6 5 1 5 8 11 10 9 8 8 7 8
11 11 11 11 10 10 10 11 11 11 10 9 8 9 8 5 6 6 7 8 7 6 5 5 4 4 4 5 6 6 6 3 2 2 5 11 11 10 9 8 7 7 7
12 10 9 11 9 9 8 9 6 7 7 6 5 7 5 3 3 6 8 9 8 7 6 7 6 5 6 4 5 6 3 4 1 3 6 13 11 10 9 8 7 7 7
12 10 9 9 8 8 6 6 4 3 4 5 5 4 3 3 3 4 3 5 5 6 5 5 6 5 4 3 3 4 4 2 1 3 7 12 11 10 9 8 7 7 7
11 10 9 8 7 6 5 4 4 3 3 3 4 4 3 1 2 3 2 3 3 2 2 2 2 3 2 3 3 3 3 2 1 3 6 11 11 10 10 9 8 8 8
11 10 9 8 6 5 4 2 4 3 4 4 3 2 2 2 2 2 2 2 2 2 3 2 2 2 2 2 2 3 2 1 1 3 5 11 11 11 10 10 10 10 9
11 10 9 9 7 5 4 2 1 3 3 3 3 4 2 2 2 2 2 2 1 1 2 2 3 2 2 1 2 2 1 2 2 3 4 8 12 12 11 11 11 11 10
10 10 9 9 8 6 5 4 3 3 4 3 3 4 3 2 3 2 1 2 1 2 2 2 2 2 3 2 2 2 2 2 1 3 3 4 6 10 11 11 11 11 11
11 10 9 9 10 8 5 4 3 3 3 3 3 3 4 3 2 1 1 1 2 2 2 2 2 2 2 2 2 2 2 2 3 3 3 4 4 5 9 11 11 11 11
11 10 8 7 9 9 7 4 3 2 2 2 3 3 4 4 4 3 2 1 2 2 1 2 2 1 1 2 2 3 3 3 3 4 4 4 5 5 5 9 12 11 12
11 10 9 8 7 7 6 4 3 3 3 3 3 3 4 4 4 3 3 3 2 1 1 1 1 1 1 2 3 3 2 2 2 3 3 3 4 5 6 6 7 8 12
12 11 10 9 8 6 5 5 4 4 4 3 4 5 5 4 4 3 2 2 2 2 2 2 1 2 2 2 1 2 2 2 3 3 3 2 2 3 3 5 5 5 5
13 11 10 9 9 7 5 4 4 4 3 4 3 4 5 5 5 5 3 3 3 2 2 2 1 1 2 2 1 1 1 1 2 3 2 3 2 1 2 4 4 4 4
14 13 11 10 9 9 7 5 4 3 3 3 4 4 5 5 5 4 4 4 3 3 3 3 3 3 2 2 2 1 1 1 1 2 2 1 1 1 1 1 4 5 5
13 13 11 10 9 8 7 7 7 6 5 4 4 4 5 6 6 5 5 4 3 2 2 4 4 3 3 3 2 2 2 1 1 1 1 1 1 2 1 2 2 3 4
14 13 11 10 9 9 8 7 6 6 5 4 4 5 5 5 5 5 5 5 4 3 4 3 2 3 3 3 2 2 2 2 3 2 2 2 1 2 2 2 2 2 3
13 13 12 11 9 9 9 8 7 6 5 4 4 4 4 4 5 6 6 5 5 4 4 4 3 4 3 3 2 2 2 1 2 2 2 2 2 2 2 2 2 1 1
Wind_Direction
111 110 109 113 112 112 110 109 110 109 107 106 105 104 104 104 104 104 104 105 106 105 103 100 97 93 90 88 89 89 91 93 97 100 102 101 102 103 106 111 111 103 107
118 116 114 114 114 113 112 110 110 110 110 109 108 108 107 107 107 107 107 106 106 106 105 103 99 97 95 95 95 97 100 106 110 113 113 106 104 103 101 98 98 109 111
117 120 119 116 116 115 113 111 110 111 110 110 110 109 108 107 108 108 108 107 107 108 107 106 102 101 99 99 101 104 110 120 126 132 131 117 108 100 97 98 104 111 111
119 120 117 118 118 118 116 113 109 109 111 111 111 110 109 109 110 110 110 110 109 109 109 107 106 104 104 104 107 111 121 132 147 161 158 128 116 111 107 107 111 113 113
113 113 117 119 118 118 117 114 112 112 114 113 112 112 111 111 112 112 113 113 113 112 110 109 109 107 107 109 114 121 135 152 180 219 121 101 104 121 117 115 118 119 119
114 115 120 121 120 120 120 119 116 116 119 118 117 116 116 115 114 114 114 115 116 115 113 111 111 111 111 112 120 138 168 212 249 222 129 114 116 127 126 126 125 125 125
118 118 124 123 122 123 123 123 122 121 121 123 121 120 121 120 118 117 116 117 117 116 114 114 116 116 116 117 130 177 238 270 264 213 116 114 124 132 133 132 132 130 131
120 121 123 124 125 126 127 129 129 127 126 125 125 125 124 123 123 121 122 122 122 122 121 123 123 124 129 134 164 238 277 292 273 128 113 116 131 136 138 140 142 142 142
125 127 129 131 131 130 130 131 131 132 132 132 133 132 133 132 130 131 130 129 128 129 131 134 137 141 148 170 215 257 276 291 297 145 122 121 135 137 141 146 149 152 156
127 129 131 136 137 138 135 135 134 136 138 141 144 146 147 147 148 149 147 140 138 142 146 147 152 165 178 202 229 254 274 292 269 158 114 127 137 142 147 151 155 161 166
125 133 140 139 139 141 142 139 143 146 150 153 159 163 165 170 162 163 155 153 157 162 167 173 179 187 201 217 229 248 272 268 262 101 108 133 142 146 152 159 165 171 176
136 140 137 136 142 146 142 141 155 162 160 174 170 173 181 187 162 153 154 165 173 182 189 198 199 206 215 215 214 229 248 248 222 125 130 145 150 154 159 167 177 181 184
143 142 140 143 142 138 133 147 155 155 159 177 167 167 169 170 155 143 160 168 184 194 203 193 202 219 214 210 194 204 229 241 177 122 140 151 156 160 168 176 184 188 193
147 147 147 138 133 132 132 140 148 154 159 157 159 173 162 165 157 153 168 170 180 190 191 201 207 222 227 230 223 210 219 225 150 124 153 162 165 171 179 186 193 197 201
149 151 143 134 121 114 113 151 156 158 157 150 154 173 168 170 161 153 159 174 198 180 180 205 212 223 243 237 229 217 226 217 170 155 153 173 177 182 188 194 200 205 205
151 150 143 140 136 136 151 180 164 159 148 146 156 158 181 168 151 152 165 191 214 197 187 187 205 207 242 248 252 259 254 209 185 178 166 179 187 190 194 200 205 208 210
154 152 150 153 151 159 178 191 177 180 163 156 146 149 168 177 156 164 178 192 198 213 205 199 213 197 220 229 233 252 255 250 213 185 185 183 187 197 200 203 206 210 212
158 157 165 170 162 170 189 197 195 181 160 155 155 163 169 169 159 179 179 189 200 228 212 203 213 209 218 232 232 238 230 227 219 216 206 195 181 188 199 204 204 207 211
159 160 168 173 163 172 183 192 204 179 164 165 170 169 167 174 180 191 184 183 211 225 224 234 182 200 222 236 244 232 225 216 217 222 213 205 189 181 180 194 201 206 212
162 163 170 174 166 173 176 187 204 195 181 183 180 169 168 187 183 192 183 188 214 206 219 255 230 219 240 239 263 256 242 214 210 232 224 215 196 189 189 182 188 205 214
165 167 174 177 172 176 179 188 197 197 198 191 188 174 176 195 182 193 203 182 205 194 211 227 222 239 239 220 254 270 251 239 234 217 217 220 209 187 178 167 176 189 195
169 172 175 179 177 184 185 193 196 196 199 194 189 167 179 190 190 194 196 207 199 196 213 226 209 237 255 213 211 280 308 307 278 242 200 200 216 185 188 181 172 178 179
175 178 179 180 178 188 186 188 200 191 208 200 181 175 187 191 198 207 187 210 210 201 197 210 211 217 244 254 207 206 224 251 281 268 249 205 186 208 221 221 182 176 179
178 178 176 177 177 184 186 195 200 197 202 203 189 182 187 194 200 195 199 207 218 212 193 212 203 218 227 253 248 226 223 198 241 293 286 260 213 205 221 259 232 184 168
179 179 177 174 178 181 188 198 202 208 208 203 194 186 192 193 201 201 204 203 206 213 211 214 209 213 226 239 249 244 235 223 227 229 260 273 260 228 204 219 224 200 172
181 179 178 174 178 180 190 199 200 211 213 214 201 185 198 199 202 205 204 201 202 208 213 214 221 221 233 244 259 266 251 241 234 237 250 257 257 254 224 213 203 188 194